Flag for Senegal Weather past 2 weeks in Dakar, Senegal

Now
84 °F

Broken clouds.


Feels Like: 94 °F
Forecast: 80 / 87 °F
Wind: 3 mph from Northeast

Location: Dakar / Yoff

Current Time: Sep 23, 2014 at 10:18:01 AM

Latest Report: Sep 23, 2014 at 10:00 AM


Visibility: N/A

Pressure: 29.95 "Hg

Humidity: 79%

Dew point: 77 °F

Location of DakarLocation

Historic Weather in Dakar — Graph

°F

Dakar temperature yesterday

Maximum temperature yesterday: 84 °F (at 11:30 AM)
Minimum temperature yesterday: 75 °F (at 5:00 PM)
Average temperature yesterday: 80 °F

Past Weeks' High & Low Weather Summary

 TemperatureHumidityPressure
High88 °F (Sep 8, 12:30 PM)100% (Sep 9, 11:30 PM)30.04 "Hg (Sep 9, 11:30 PM)
Low72 °F (Sep 19, 1:00 AM)62% (Sep 13, 9:30 AM)29.80 "Hg (Sep 10, 6:00 PM)
Average81 °F84%29.89 "Hg
* Reported Sep 8 9:00 AM — Sep 23 9:00 AM, Dakar, Weather by CustomWeather, © 2014

Note: Actual official high and low records may vary slightly from our data, if they occured in-between our weather recording intervals... More about our weather records

Advertising

Dakar weather history for previous 24 hours

 ConditionsComfort  
Time TempWeatherWind HumidityBarometerVisibility
9:00 AM
Sep 23
82 °FPartly sunny.2 mph84%29.95 "HgN/A
8:30 AM81 °FPartly sunny.5 mph89%29.92 "HgN/A
8:00 AM79 °FPartly sunny.No wind94%29.92 "HgN/A
7:30 AM77 °FPartly sunny.1 mph94%29.92 "HgN/A
7:00 AM77 °FPartly sunny.1 mph94%29.92 "HgN/A
6:30 AM77 °FPassing clouds.2 mph94%29.89 "HgN/A
6:00 AM77 °FPassing clouds.3 mph94%29.89 "HgN/A
5:30 AM77 °FPassing clouds.3 mph94%29.89 "HgN/A
5:00 AM77 °FPassing clouds.1 mph94%29.86 "HgN/A
4:30 AM75 °FPassing clouds.No wind100%29.86 "HgN/A
4:00 AM75 °FPassing clouds.No wind100%29.86 "HgN/A
3:30 AM75 °FPassing clouds.1 mph94%29.89 "HgN/A
3:00 AM75 °FPassing clouds.No wind94%29.89 "HgN/A
2:30 AM77 °FPassing clouds.No wind89%29.89 "HgN/A
2:00 AM77 °FPassing clouds.No wind89%29.89 "HgN/A
1:30 AM75 °FPassing clouds.No wind94%29.92 "HgN/A
1:00 AM75 °FPassing clouds.No wind94%29.92 "HgN/A
12:30 AM75 °FPassing clouds.No wind94%29.92 "HgN/A
12:00 AM75 °FPassing clouds.No wind94%29.92 "HgN/A
11:30 PM
Sep 22
75 °FPassing clouds.1 mph94%29.92 "HgN/A
11:00 PM75 °FPassing clouds.2 mph94%29.92 "HgN/A
10:30 PM77 °FPassing clouds.1 mph89%29.92 "HgN/A
10:00 PM77 °FPassing clouds.No wind89%29.92 "HgN/A
9:30 PM77 °FPassing clouds.2 mph89%29.89 "HgN/A
9:00 PM77 °FPassing clouds.5 mph89%29.89 "HgN/A
8:30 PM77 °FPassing clouds.2 mph83%29.89 "HgN/A
8:00 PM77 °FPartly cloudy.No wind89%29.89 "HgN/A
7:30 PM77 °FPartly cloudy.3 mph89%29.89 "HgN/A
7:00 PM77 °FBroken clouds.2 mph89%29.89 "HgN/A
6:30 PM77 °FThunderstorms. Broken clouds.No wind89%29.89 "HgN/A
6:00 PM77 °FThunderstorms. Broken clouds.2 mph83%29.92 "Hg5 mi
5:30 PM75 °FThunderstorms. Broken clouds.7 mph89%29.92 "Hg5 mi
5:00 PM75 °FLight rain. Partly sunny.14 mph89%29.92 "Hg5 mi
4:30 PM84 °FBroken clouds.12 mph79%29.92 "HgN/A
4:00 PM84 °FBroken clouds.9 mph79%29.89 "HgN/A
3:30 PM84 °FBroken clouds.8 mph84%29.89 "HgN/A
3:00 PM84 °FBroken clouds.8 mph79%29.89 "HgN/A
2:30 PM84 °FBroken clouds.9 mph79%29.89 "HgN/A
2:00 PM84 °FPartly sunny.8 mph79%29.86 "HgN/A
1:30 PM84 °FPartly sunny.7 mph79%29.89 "HgN/A
1:00 PM84 °FPartly sunny.6 mph79%29.89 "HgN/A
12:30 PM84 °FPartly sunny.7 mph79%29.92 "HgN/A
12:00 PM84 °FBroken clouds.7 mph79%29.92 "HgN/A
11:30 AM84 °FBroken clouds.7 mph79%29.92 "HgN/A
11:00 AM81 °FBroken clouds.5 mph84%29.95 "HgN/A
10:30 AM77 °FLight rain. Partly sunny.6 mph89%29.95 "Hg6 mi
10:00 AM82 °FBroken clouds.2 mph84%29.98 "HgN/A
Weather by CustomWeather, © 2014

See weather overviewHow to use our weather pages